Location: Oslo
(59.9170°N, 10.7500°E)
Time: 06:11:01
(UTC+02:00)

ISS - Visible Passes

Search period start: 27 May 2017 00:00
Search period end: 06 June 2017 00:00
Orbit: 402 x 408 km, 51.6° (Epoch: 27 May)

Date Brightness Start Highest point End Pass type
(mag) Time Alt. Az. Time Alt. Az. Time Alt. Az.
27 May -2.4 00:59:14 10° SW 01:01:40 19° S 01:04:07 10° SE visible
27 May -1.8 02:36:04 10° SW 02:37:18 12° SSW 02:38:33 10° S visible
28 May -2.4 00:07:22 10° SW 00:09:51 20° S 00:12:20 10° SE visible
28 May -2.0 01:43:40 10° SW 01:45:33 14° SSW 01:47:25 10° SSE visible
29 May -2.2 00:51:32 10° SW 00:53:46 17° SSW 00:55:59 10° SSE visible
29 May -2.3 23:59:31 10° SW 00:01:55 19° S 00:04:19 10° SE visible
30 May -1.6 01:36:47 10° SW 01:37:32 11° SSW 01:37:45 11° SSW visible
31 May -1.8 00:44:02 10° SW 00:45:44 13° SSW 00:47:03 11° S visible
31 May -2.0 23:51:47 10° SW 23:53:55 16° SSW 23:56:02 10° SSE visible
